Weather History for Hatteras, NC

Change the Weather History Date:

Thursday, July 19, 2012

  Actual Average Record
Temperature  
Mean Temperature 84 °F 79 °F  
Max Temperature 88 °F 85 °F 92 °F (1986)
Min Temperature 80 °F 74 °F 58 °F (1966)
Degree Days  
Heating Degree Days 0 0  
Month to date heating degree days 0 0  
Since 1 June heating degree days 0 3  
Since 1 July heating degree days 0 0  
Cooling Degree Days 19 14  
Month to date cooling degree days 337 263  
Year to date cooling degree days 984 714  
Since 1 June cooling degree days 659 571  
Growing Degree Days 34 (Base 50)    
Moisture  
Dew Point 75 °F    
Average Humidity 78    
Maximum Humidity 85    
Minimum Humidity 70    
Precipitation  
Precipitation 0.00 in 0.17 in 0.71 in (1961)
Month to date precipitation 2.55 2.84  
Year to date precipitation 28.08 28.11  
Snow  
Snow 0.00 in - - ()
Month to date snowfall 0.0  
Since 1 July snowfall 0.0  
Snow Depth 0.00 in    
Sea Level Pressure  
Sea Level Pressure 30.01 in    
Wind  
Wind Speed 12 mph (SW)    
Max Wind Speed 18 mph    
Max Gust Speed 26 mph    
Visibility 9 miles    
Events      
T = Trace of Precipitation, MM = Missing Value Source: NWS Daily Summary

Daily Weather History Graph

Daily Weather History Graph

Search for Another Location

Airport:

Trip Planner

Search our weather history database for the weather conditions in past years. The results will help you decide how hot, cold, wet, or windy it might be!

Date:

Astronomy

Jul. 19, 2012 Rise Set
Actual Time 6:02 AM EDT 8:15 PM EDT
Civil Twilight 5:33 AM EDT 8:43 PM EDT
Nautical Twilight 4:58 AM EDT 9:18 PM EDT
Astronomical Twilight 4:19 AM EDT 9:57 PM EDT
Moon 6:31 AM EDT 8:24 PM EDT
Length of Visible Light 15h 10m
Length of Day
14h 12m
New Moon, 0% of the Moon is Illuminated
Jul 19
New Moon
Jul 26
First Quarter
Aug 1
Full
Aug 9
Last Quarter
Aug 17
New

Hourly Weather History & Observations

Time (EDT) Temp. Heat Index Dew Point Humidity Pressure Visibility Wind Dir Wind Speed Gust Speed Precip Events Conditions
12:51 AM 81.0 °F 86.7 °F 75.0 °F 82% 30.03 in 10.0 mi WSW 11.5 mph - N/A   Clear
1:51 AM 80.1 °F 85.1 °F 75.0 °F 85% 30.02 in 10.0 mi SW 11.5 mph - N/A   Clear
2:51 AM 80.1 °F 84.5 °F 73.9 °F 81% 30.01 in 10.0 mi WSW 11.5 mph - N/A   Clear
3:51 AM 80.1 °F 84.5 °F 73.9 °F 81% 30.00 in 9.0 mi WSW 10.4 mph - N/A   Clear
4:51 AM 80.1 °F 84.5 °F 73.9 °F 81% 30.01 in 9.0 mi WSW 10.4 mph - N/A   Clear
5:51 AM 80.1 °F 84.5 °F 73.9 °F 81% 30.01 in 9.0 mi WSW 10.4 mph - N/A   Clear
6:51 AM 80.1 °F 85.1 °F 75.0 °F 85% 30.03 in 6.0 mi WSW 8.1 mph - N/A   Haze
7:51 AM 81.0 °F 87.3 °F 75.9 °F 85% 30.04 in 7.0 mi WSW 6.9 mph - N/A   Clear
8:51 AM 82.0 °F 88.6 °F 75.0 °F 79% 30.04 in 9.0 mi SW 5.8 mph - N/A   Clear
9:51 AM 84.0 °F 92.6 °F 75.9 °F 76% 30.05 in 9.0 mi WSW 10.4 mph - N/A   Clear
10:51 AM 84.9 °F 94.1 °F 75.9 °F 74% 30.05 in 10.0 mi WSW 10.4 mph - N/A   Clear
11:51 AM 84.9 °F 94.1 °F 75.9 °F 74% 30.04 in 10.0 mi SW 12.7 mph - N/A   Clear
12:51 PM 86.0 °F 95.1 °F 75.0 °F 70% 30.04 in 10.0 mi SW 12.7 mph 21.9 mph N/A   Clear
1:51 PM 86.0 °F 96.9 °F 77.0 °F 74% 30.03 in 10.0 mi SW 12.7 mph 19.6 mph N/A   Clear
2:51 PM 87.1 °F 98.8 °F 77.0 °F 72% 30.01 in 10.0 mi SW 11.5 mph 19.6 mph N/A   Clear
3:51 PM 87.1 °F 98.8 °F 77.0 °F 72% 30.00 in 10.0 mi SW 12.7 mph 20.7 mph N/A   Clear
4:51 PM 86.0 °F 96.0 °F 75.9 °F 72% 29.98 in 9.0 mi SW 13.8 mph 24.2 mph N/A   Clear
5:51 PM 84.9 °F 94.1 °F 75.9 °F 74% 29.97 in 8.0 mi SW 16.1 mph 23.0 mph N/A   Clear
6:51 PM 82.9 °F 90.8 °F 75.9 °F 79% 29.97 in 8.0 mi SW 15.0 mph 24.2 mph N/A   Clear
7:51 PM 82.0 °F 89.4 °F 75.9 °F 82% 29.98 in 8.0 mi SW 17.3 mph 25.3 mph N/A   Clear
8:51 PM 82.0 °F 89.4 °F 75.9 °F 82% 29.99 in 9.0 mi SW 15.0 mph 20.7 mph N/A   Clear
9:51 PM 81.0 °F 87.3 °F 75.9 °F 85% 29.99 in 9.0 mi SW 12.7 mph 23.0 mph N/A   Clear
10:51 PM 81.0 °F 86.7 °F 75.0 °F 82% 30.00 in 9.0 mi WSW 16.1 mph 23.0 mph N/A   Clear
11:51 PM 81.0 °F 86.7 °F 75.0 °F 82% 29.98 in 9.0 mi SW 15.0 mph 24.2 mph N/A   Clear